DW6912 Weather Reports


Display with metric or nautical units.
time (UTC)temp
F
wind
direction
speed
MPH
gust
MPH
rain 1hr
in
rain 24hr
in
rain mn
in
humidity
%
barometer
mb
20260502225559 52 5 6.0 6.0 0.00 0.03 0.02 57 1011.2
20260502225359 52 270 2.0 6.0 0.00 0.03 0.02 58 1011.1
20260502225300 52 263 1.0 9.0 0.00 0.03 0.02 59 1011.1
20260502225159 52 264 2.0 9.0 0.00 0.03 0.02 58 1011.2
20260502225059 52 339 5.0 9.0 0.00 0.03 0.02 58 1011.2
20260502225000 52 324 4.0 9.0 0.00 0.03 0.02 58 1011.1
20260502224859 52 324 2.0 9.0 0.00 0.03 0.02 57 1011.1
20260502224758 52 355 5.0 9.0 0.00 0.03 0.02 57 1011.2
20260502224659 52 320 3.0 11.0 0.00 0.03 0.02 57 1011.1
20260502224600 52 272 3.0 11.0 0.00 0.03 0.02 58 1011.2
20260502224505 52 330 3.0 11.0 0.00 0.03 0.02 58 1011.1
20260502224400 52 5 9.0 11.0 0.00 0.03 0.02 58 1011.1
20260502224259 52 10 3.0 11.0 0.00 0.03 0.02 59 1011.1
20260502224200 52 10 1.0 11.0 0.00 0.03 0.02 58 1011.1
20260502224100 52 10 2.0 11.0 0.00 0.03 0.02 59 1011.1
20260502224004 52 11 7.0 11.0 0.00 0.03 0.02 58 1011.0
20260502223859 52 328 2.0 11.0 0.00 0.03 0.02 57 1011.0
20260502223659 52 55 3.0 8.0 0.00 0.03 0.02 56 1011.0
20260502223559 52 355 3.0 8.0 0.00 0.03 0.02 56 1011.1
20260502223504 52 5 2.0 8.0 0.00 0.03 0.02 56 1011.0
20260502223359 53 355 4.0 8.0 0.00 0.03 0.02 56 1011.1
20260502223258 53 5 8.0 8.0 0.00 0.03 0.02 55 1011.1
20260502223058 53 24 3.0 8.0 0.00 0.03 0.02 56 1011.0
20260502223004 53 11 4.0 7.0 0.00 0.03 0.02 55 1011.1
20260502222759 53 327 5.0 6.0 0.00 0.03 0.02 56 1011.0
20260502222659 53 321 1.0 6.0 0.00 0.03 0.02 57 1011.0
20260502222559 53 309 3.0 6.0 0.00 0.03 0.02 56 1011.0
20260502222502 53 309 2.0 6.0 0.00 0.03 0.02 56 1011.0
20260502222300 53 325 3.0 6.0 0.00 0.03 0.02 57 1011.0
20260502222159 53 326 3.0 6.0 0.00 0.03 0.02 57 1010.9
20260502222059 53 325 3.0 6.0 0.00 0.03 0.02 56 1011.0
20260502222004 53 325 3.0 6.0 0.00 0.03 0.02 55 1010.9
20260502221859 53 339 2.0 5.0 0.00 0.03 0.02 57 1011.0
20260502221759 53 58 1.0 5.0 0.00 0.03 0.02 56 1011.0
20260502221559 53 58 2.0 5.0 0.00 0.03 0.02 56 1010.9
20260502221359 53 22 1.0 9.0 0.00 0.03 0.02 58 1011.0
20260502221258 53 22 0.0 9.0 0.00 0.03 0.02 57 1011.0
20260502221159 53 22 2.0 9.0 0.00 0.03 0.02 59 1011.0
20260502221004 53 11 4.0 9.0 0.00 0.03 0.02 56 1011.0
20260502220859 53 5 2.0 9.0 0.00 0.03 0.02 57 1011.0
20260502220800 53 9 4.0 9.0 0.00 0.03 0.02 56 1011.0
20260502220659 53 322 4.0 9.0 0.00 0.03 0.02 55 1010.9
20260502220559 53 5 3.0 9.0 0.00 0.03 0.02 55 1010.9
20260502220400 53 10 4.0 8.0 0.00 0.03 0.02 56 1011.0
20260502220259 53 30 2.0 8.0 0.00 0.03 0.02 55 1011.0
20260502220058 53 28 2.0 6.0 0.00 0.03 0.02 55 1011.0
20260502220005 53 28 3.0 6.0 0.00 0.03 0.02 56 1011.0
20260502215859 53 46 3.0 6.0 0.00 0.03 0.02 55 1011.0
20260502215800 54 41 4.0 6.0 0.00 0.03 0.02 56 1011.0
20260502215659 54 324 3.0 4.0 0.00 0.03 0.02 56 1010.9
20260502215559 54 19 4.0 4.0 0.00 0.03 0.02 56 1010.9
20260502215359 54 265 2.0 4.0 0.00 0.03 0.02 56 1010.9
20260502215259 54 265 2.0 4.0 0.00 0.03 0.02 55 1011.0
20260502215201 54 265 2.0 3.0 0.00 0.03 0.02 56 1010.9
20260502215100 54 265 1.0 4.0 0.00 0.03 0.02 57 1011.0
20260502215001 54 265 1.0 4.0 0.00 0.03 0.02 56 1011.0
20260502214900 54 265 1.0 4.0 0.00 0.03 0.02 56 1010.9
20260502214800 54 265 1.0 5.0 0.00 0.03 0.02 54 1010.9
20260502214659 54 265 2.0 5.0 0.00 0.03 0.02 54 1010.9
20260502214600 54 265 0.0 5.0 0.00 0.03 0.02 55 1010.9
20260502214500 54 265 2.0 5.0 0.00 0.03 0.02 55 1010.7
20260502214359 54 264 0.0 5.0 0.00 0.03 0.02 56 1010.7
20260502214159 54 264 2.0 5.0 0.00 0.03 0.02 54 1010.7
20260502214100 54 264 2.0 5.0 0.00 0.03 0.02 55 1010.7
20260502213759 54 252 2.0 5.0 0.00 0.03 0.02 55 1010.7
20260502213659 54 252 1.0 5.0 0.00 0.03 0.02 54 1010.7
20260502213601 54 252 2.0 5.0 0.00 0.03 0.02 53 1010.7
20260502213500 54 257 3.0 4.0 0.00 0.03 0.02 57 1010.7
20260502213400 54 257 2.0 4.0 0.00 0.03 0.02 53 1010.7
20260502213259 54 257 2.0 4.0 0.00 0.03 0.02 55 1010.7
20260502213159 54 252 2.0 4.0 0.00 0.03 0.02 55 1010.6
20260502213059 54 252 3.0 4.0 0.00 0.03 0.02 53 1010.7
20260502213000 54 252 3.0 4.0 0.00 0.03 0.02 53 1010.6
20260502212858 54 252 3.0 4.0 0.00 0.03 0.02 54 1010.6
20260502212759 54 248 0.0 4.0 0.00 0.03 0.02 53 1010.6
20260502212659 54 248 2.0 4.0 0.00 0.03 0.02 54 1010.6
20260502212600 54 248 3.0 4.0 0.00 0.03 0.02 57 1010.6
20260502212504 54 248 1.0 4.0 0.00 0.03 0.02 54 1010.5
20260502212258 54 246 3.0 4.0 0.00 0.03 0.02 54 1010.6
20260502212100 54 244 2.0 4.0 0.00 0.03 0.02 55 1010.5
20260502212001 54 34 3.0 4.0 0.00 0.03 0.02 54 1010.6
20260502211859 54 42 2.0 4.0 0.00 0.03 0.02 55 1010.5
20260502211759 54 42 1.0 4.0 0.00 0.03 0.02 55 1010.5
20260502211659 54 42 2.0 4.0 0.00 0.03 0.02 56 1010.5
20260502211558 54 42 1.0 4.0 0.00 0.03 0.02 53 1010.5
20260502211501 54 42 4.0 6.0 0.00 0.03 0.02 55 1010.5
20260502211358 54 43 1.0 6.0 0.00 0.03 0.02 55 1010.5
20260502211259 54 42 2.0 6.0 0.00 0.03 0.02 55 1010.5
20260502211201 54 324 2.0 6.0 0.00 0.03 0.02 55 1010.5
20260502211059 54 355 0.0 6.0 0.00 0.03 0.02 57 1010.5
20260502211004 54 360 2.0 6.0 0.00 0.03 0.02 55 1010.5
20260502210859 54 360 4.0 6.0 0.00 0.03 0.02 55 1010.5
20260502210759 54 157 0.0 6.0 0.00 0.03 0.02 55 1010.5
20260502210659 54 157 1.0 6.0 0.00 0.03 0.02 56 1010.5
20260502210600 54 157 1.0 6.0 0.00 0.03 0.02 55 1010.5
20260502210401 54 305 4.0 4.0 0.00 0.03 0.02 53 1010.5
20260502210259 54 279 3.0 5.0 0.00 0.03 0.02 54 1010.5
20260502210159 54 257 2.0 5.0 0.00 0.03 0.02 55 1010.5
20260502210059 54 276 4.0 5.0 0.00 0.03 0.02 56 1010.5
20260502210001 54 278 3.0 5.0 0.00 0.03 0.02 55 1010.5
20260502205857 54 278 1.0 5.0 0.00 0.03 0.02 53 1010.5
20260502205758 54 278 2.0 5.0 0.00 0.03 0.02 54 1010.5
20260502205658 54 269 3.0 5.0 0.00 0.03 0.02 55 1010.5
20260502205559 54 267 3.0 5.0 0.00 0.03 0.02 56 1010.5
20260502205501 54 11 1.0 5.0 0.00 0.03 0.02 55 1010.5
20260502205358 54 15 4.0 6.0 0.00 0.03 0.02 56 1010.5
20260502205257 54 5 5.0 6.0 0.00 0.03 0.02 54 1010.5
20260502205159 54 24 3.0 6.0 0.00 0.03 0.02 55 1010.6
20260502205059 54 63 5.0 6.0 0.00 0.03 0.02 57 1010.6
20260502205000 54 27 1.0 6.0 0.00 0.03 0.02 55 1010.6
20260502204858 54 27 0.0 6.0 0.00 0.03 0.02 55 1010.6
20260502204759 54 27 2.0 6.0 0.00 0.03 0.02 54 1010.6
20260502204559 54 333 2.0 6.0 0.00 0.03 0.02 54 1010.6
20260502204459 54 333 4.0 6.0 0.00 0.03 0.02 55 1010.6
20260502204258 54 283 1.0 4.0 0.00 0.03 0.02 58 1010.5
20260502204058 54 283 0.0 4.0 0.00 0.03 0.02 56 1010.6
20260502203959 54 283 2.0 4.0 0.00 0.03 0.02 56 1010.5
20260502203858 54 251 1.0 4.0 0.00 0.03 0.02 57 1010.6
20260502203758 54 251 1.0 4.0 0.00 0.03 0.02 56 1010.5
20260502203658 54 251 2.0 4.0 0.00 0.03 0.02 53 1010.5
20260502203558 54 269 3.0 4.0 0.00 0.03 0.02 54 1010.5
20260502203500 54 286 1.0 4.0 0.00 0.03 0.02 60 1010.6
20260502203358 54 286 1.0 6.0 0.00 0.03 0.02 56 1010.6
20260502203258 54 286 2.0 6.0 0.00 0.03 0.02 56 1010.6
20260502203158 54 281 2.0 6.0 0.00 0.03 0.02 56 1010.5
20260502203001 54 281 1.0 6.0 0.00 0.03 0.02 56 1010.5
20260502202859 54 281 2.0 6.0 0.00 0.03 0.02 57 1010.5
20260502202758 54 20 1.0 6.0 0.00 0.03 0.02 57 1010.5
20260502202658 54 20 2.0 6.0 0.00 0.03 0.02 57 1010.6
20260502202559 54 20 2.0 6.0 0.00 0.03 0.02 56 1010.6
20260502202500 54 24 4.0 6.0 0.00 0.03 0.02 56 1010.6
20260502202359 54 304 3.0 5.0 0.00 0.03 0.02 54 1010.7
20260502202257 54 301 3.0 5.0 0.00 0.03 0.02 56 1010.7
20260502202200 54 290 3.0 5.0 0.00 0.03 0.02 56 1010.7
20260502202058 54 293 1.0 5.0 0.00 0.03 0.02 55 1010.7
20260502202001 54 293 1.0 5.0 0.00 0.03 0.02 55 1010.8
20260502201857 54 293 2.0 5.0 0.00 0.03 0.02 55 1010.7
20260502201758 54 293 1.0 5.0 0.00 0.03 0.02 55 1010.7
20260502201658 54 293 2.0 5.0 0.00 0.03 0.02 55 1010.8
20260502201557 54 293 3.0 6.0 0.00 0.03 0.02 56 1010.7
20260502201358 54 271 3.0 6.0 0.00 0.03 0.02 55 1010.7
20260502201300 54 257 5.0 5.0 0.00 0.03 0.02 56 1010.7
20260502201001 54 27 4.0 7.0 0.00 0.03 0.02 55 1010.8
20260502200858 54 261 2.0 7.0 0.00 0.03 0.02 55 1010.8
20260502200757 54 261 2.0 7.0 0.00 0.03 0.02 56 1010.8
20260502200659 54 261 0.0 7.0 0.00 0.03 0.02 55 1010.8
20260502200558 54 261 0.0 7.0 0.00 0.03 0.02 55 1010.9
20260502200501 55 261 3.0 7.0 0.00 0.03 0.02 54 1010.9
20260502200357 55 261 1.0 7.0 0.00 0.03 0.02 53 1010.9
20260502200258 55 261 2.0 7.0 0.00 0.03 0.02 52 1010.9
20260502200158 55 261 1.0 8.0 0.00 0.03 0.02 53 1010.9
20260502200059 55 257 4.0 8.0 0.00 0.03 0.02 53 1011.0
20260502200000 55 327 3.0 8.0 0.00 0.03 0.02 53 1011.0
20260502195857 55 11 2.0 8.0 0.00 0.03 0.02 54 1011.0
20260502195758 55 18 5.0 8.0 0.00 0.03 0.02 57 1011.0
20260502195658 55 24 3.0 8.0 0.00 0.03 0.02 55 1011.0
20260502195459 55 315 2.0 8.0 0.00 0.03 0.02 53 1011.0
20260502195359 55 336 2.0 8.0 0.00 0.03 0.02 55 1011.0
20260502195258 55 13 3.0 8.0 0.00 0.03 0.02 57 1011.0
20260502195158 55 17 7.0 8.0 0.00 0.03 0.02 56 1011.1
20260502195058 55 264 2.0 6.0 0.00 0.03 0.02 53 1011.1
20260502194959 55 262 3.0 6.0 0.00 0.03 0.02 55 1011.1
20260502194859 55 340 1.0 6.0 0.00 0.03 0.02 55 1011.1
20260502194758 55 11 3.0 6.0 0.00 0.03 0.02 53 1011.1
20260502194658 55 246 2.0 6.0 0.00 0.03 0.02 56 1011.2
20260502194558 55 241 2.0 6.0 0.00 0.03 0.02 54 1011.2
20260502194501 55 340 4.0 6.0 0.00 0.03 0.02 57 1011.2
20260502194359 55 5 5.0 6.0 0.00 0.03 0.02 55 1011.2
20260502194258 55 251 3.0 5.0 0.00 0.03 0.02 56 1011.3
20260502194058 55 250 2.0 5.0 0.00 0.03 0.02 54 1011.2
20260502193959 55 250 3.0 5.0 0.00 0.03 0.02 54 1011.3
20260502193859 55 250 2.0 5.0 0.00 0.03 0.02 54 1011.3
20260502193758 55 249 1.0 5.0 0.00 0.03 0.02 56 1011.3
20260502193657 55 249 0.0 5.0 0.00 0.03 0.02 58 1011.3
20260502193259 55 249 1.0 5.0 0.00 0.03 0.02 55 1011.4
20260502193158 55 244 1.0 5.0 0.00 0.03 0.02 56 1011.4
20260502192959 55 277 3.0 6.0 0.00 0.03 0.02 56 1011.4
20260502192858 55 268 1.0 6.0 0.00 0.03 0.02 56 1011.4
20260502192559 54 315 5.0 5.0 0.00 0.03 0.02 59 1011.4
20260502192458 54 338 2.0 5.0 0.00 0.03 0.02 59 1011.5
20260502192358 54 345 2.0 5.0 0.00 0.03 0.02 58 1011.5
20260502192259 54 347 2.0 5.0 0.00 0.03 0.02 57 1011.5
20260502192158 54 307 1.0 5.0 0.00 0.03 0.02 56 1011.5
20260502192100 54 307 1.0 5.0 0.00 0.03 0.02 58 1011.5
20260502192000 54 307 2.0 5.0 0.00 0.03 0.02 58 1011.6
20260502191858 54 5 3.0 5.0 0.00 0.03 0.02 56 1011.6
20260502191758 54 330 1.0 5.0 0.00 0.03 0.02 55 1011.6
20260502191659 54 330 2.0 5.0 0.00 0.03 0.02 54 1011.6
20260502191558 54 330 2.0 6.0 0.00 0.03 0.02 56 1011.6
20260502191501 54 278 4.0 6.0 0.00 0.03 0.02 57 1011.6
20260502191359 54 255 2.0 6.0 0.00 0.03 0.02 57 1011.5
20260502191158 54 255 3.0 6.0 0.00 0.03 0.02 54 1011.6
20260502191058 55 254 3.0 6.0 0.00 0.03 0.02 55 1011.6
20260502191000 55 256 3.0 8.0 0.00 0.03 0.02 56 1011.7
20260502190858 55 252 1.0 8.0 0.00 0.03 0.02 57 1011.6
20260502190758 55 248 2.0 8.0 0.00 0.03 0.02 54 1011.7
20260502190659 55 269 3.0 8.0 0.00 0.03 0.02 53 1011.7
20260502190459 55 9 1.0 8.0 0.00 0.03 0.02 55 1011.7
20260502190400 55 10 4.0 8.0 0.00 0.03 0.02 55 1011.8
20260502190258 55 282 2.0 8.0 0.00 0.03 0.02 55 1011.8
20260502190159 55 265 3.0 8.0 0.00 0.03 0.02 55 1011.8
20260502190059 55 309 3.0 8.0 0.00 0.03 0.02 56 1011.8
20260502185858 55 254 3.0 5.0 0.00 0.03 0.02 58 1011.8
20260502185800 54 254 2.0 3.0 0.00 0.03 0.02 58 1011.8
20260502185700 54 254 1.0 3.0 0.00 0.03 0.02 56 1011.8
20260502185559 54 254 2.0 3.0 0.00 0.03 0.02 57 1011.9
20260502185358 54 253 3.0 3.0 0.00 0.03 0.02 55 1011.9
20260502185258 54 14 2.0 2.0 0.00 0.03 0.02 57 1011.9
20260502185158 54 14 0.0 3.0 0.00 0.03 0.02 56 1011.9
20260502185059 54 14 2.0 3.0 0.00 0.03 0.02 57 1012.0
20260502184857 54 14 2.0 5.0 0.00 0.03 0.02 55 1012.0
20260502184759 54 14 2.0 5.0 0.00 0.03 0.02 56 1012.0
20260502184700 54 14 1.0 5.0 0.00 0.03 0.02 55 1012.1
20260502184558 54 14 2.0 5.0 0.00 0.03 0.02 56 1012.0
20260502184459 53 14 0.0 6.0 0.00 0.03 0.02 57 1012.1
20260502184358 53 14 1.0 6.0 0.00 0.03 0.02 56 1012.1
20260502184259 53 14 1.0 9.0 0.00 0.03 0.02 56 1012.1
20260502183959 54 14 5.0 9.0 0.00 0.03 0.02 59 1012.2
20260502183859 54 27 5.0 9.0 0.00 0.03 0.02 56 1012.1
20260502183758 54 14 3.0 9.0 0.00 0.03 0.02 56 1012.2
20260502183558 54 325 4.0 9.0 0.00 0.03 0.02 56 1012.2
20260502183500 54 315 4.0 9.0 0.00 0.03 0.02 55 1012.2
20260502183358 54 249 5.0 9.0 0.00 0.03 0.02 54 1012.2
20260502183259 54 251 4.0 5.0 0.00 0.03 0.02 54 1012.1
20260502183058 54 215 3.0 7.0 0.00 0.03 0.02 55 1012.2
20260502182758 54 234 0.0 7.0 0.00 0.03 0.02 55 1012.2
20260502182657 54 234 1.0 7.0 0.00 0.03 0.02 56 1012.2
20260502182557 54 234 0.0 7.0 0.00 0.03 0.02 58 1012.2
20260502182357 54 234 1.0 7.0 0.00 0.03 0.02 58 1012.2
20260502182058 54 255 1.0 3.0 0.00 0.03 0.02 55 1012.2
20260502181959 54 255 1.0 4.0 0.00 0.03 0.02 54 1012.2
20260502181858 54 255 1.0 4.0 0.00 0.03 0.02 54 1012.2
20260502181759 54 256 2.0 4.0 0.00 0.03 0.02 55 1012.3
20260502181558 54 255 2.0 6.0 0.00 0.03 0.02 56 1012.3
20260502181459 54 254 1.0 6.0 0.00 0.03 0.02 58 1012.3
20260502181359 53 254 2.0 6.0 0.00 0.03 0.02 56 1012.3
20260502181258 53 254 1.0 6.0 0.00 0.03 0.02 57 1012.3
20260502181159 53 254 1.0 6.0 0.00 0.03 0.02 56 1012.3
20260502181057 53 254 2.0 6.0 0.00 0.03 0.02 56 1012.2
20260502181000 53 254 3.0 6.0 0.00 0.03 0.02 56 1012.2
20260502180858 53 254 2.0 6.0 0.00 0.03 0.02 55 1012.3
20260502180757 54 254 3.0 6.0 0.00 0.03 0.02 55 1012.2
20260502180459 54 296 2.0 6.0 0.00 0.03 0.02 55 1012.2
20260502180158 54 32 3.0 6.0 0.00 0.03 0.02 56 1012.2
20260502170359 56 259 2.0 5.0 0.00 0.03 0.02 56 1012.4
20260502170259 56 317 2.0 5.0 0.00 0.03 0.02 59 1012.4
20260502170159 56 317 2.0 5.0 0.00 0.03 0.02 57 1012.4
20260502164259 54 248 2.0 7.0 0.00 0.03 0.02 57 1012.5
20260502164158 54 257 1.0 9.0 0.00 0.03 0.02 56 1012.5
20260502164100 54 257 1.0 9.0 0.00 0.03 0.02 55 1012.5
20260502164000 54 254 2.0 9.0 0.00 0.03 0.02 56 1012.5
20260502163900 54 256 2.0 9.0 0.00 0.03 0.02 56 1012.6
20260502163758 54 232 4.0 9.0 0.00 0.03 0.02 61 1012.5
20260502163657 55 247 2.0 9.0 0.00 0.03 0.02 57 1012.6
20260502163558 55 265 1.0 9.0 0.00 0.03 0.02 59 1012.7
20260502163500 55 265 2.0 9.0 0.00 0.03 0.02 62 1012.6
20260502163359 55 297 3.0 9.0 0.00 0.03 0.02 60 1012.6
20260502163157 55 264 3.0 5.0 0.00 0.03 0.02 61 1012.6
20260502163058 54 335 3.0 5.0 0.00 0.03 0.02 57 1012.6
20260502162959 55 271 1.0 5.0 0.00 0.03 0.02 59 1012.7
20260502162858 55 272 4.0 6.0 0.00 0.03 0.02 61 1012.6
20260502162758 55 348 2.0 6.0 0.00 0.03 0.02 63 1012.7
20260502162559 54 350 0.0 6.0 0.00 0.03 0.02 60 1012.8
20260502162459 54 349 3.0 6.0 0.00 0.03 0.02 60 1012.8
20260502162357 54 238 3.0 6.0 0.00 0.03 0.02 60 1012.8
20260502162300 54 236 3.0 6.0 0.00 0.03 0.02 61 1013.0
20260502162158 54 235 1.0 6.0 0.00 0.03 0.02 58 1012.9
20260502162001 54 325 4.0 6.0 0.00 0.03 0.02 59 1013.0
20260502161859 54 331 4.0 6.0 0.00 0.03 0.02 57 1013.0
20260502161758 54 241 2.0 5.0 0.00 0.03 0.02 58 1012.9
20260502161659 54 247 2.0 7.0 0.00 0.03 0.02 63 1013.0
20260502161500 54 225 2.0 7.0 0.00 0.03 0.02 61 1013.0
20260502161359 54 257 2.0 7.0 0.00 0.03 0.02 61 1013.0
20260502161258 54 274 4.0 7.0 0.00 0.03 0.02 63 1013.1
20260502161059 54 274 2.0 7.0 0.00 0.03 0.02 63 1013.1
20260502161000 54 260 2.0 7.0 0.00 0.03 0.02 64 1013.1
20260502160900 53 255 1.0 7.0 0.00 0.03 0.02 63 1013.1
20260502160759 53 261 2.0 7.0 0.00 0.03 0.02 61 1013.1
20260502160659 53 240 4.0 5.0 0.00 0.03 0.02 64 1013.1
20260502160559 53 278 2.0 5.0 0.00 0.03 0.02 62 1013.1
20260502160502 53 278 2.0 5.0 0.00 0.03 0.02 62 1013.1
20260502160358 53 253 2.0 5.0 0.00 0.03 0.02 64 1013.1
20260502160258 52 252 1.0 5.0 0.00 0.03 0.02 65 1013.1
20260502160158 52 261 3.0 6.0 0.00 0.03 0.02 64 1013.1
20260502152000 51 30 4.0 13.0 0.00 0.03 0.02 64 1013.1
20260502151900 51 355 1.0 13.0 0.00 0.03 0.02 64 1013.2
20260502151800 51 17 4.0 13.0 0.00 0.03 0.02 62 1013.2
20260502151700 51 50 3.0 13.0 0.00 0.03 0.02 62 1013.3
20260502151501 52 32 8.0 13.0 0.00 0.03 0.02 66 1013.4
20260502151359 52 46 4.0 13.0 0.00 0.03 0.02 64 1013.4
20260502151200 51 5 4.0 13.0 0.00 0.03 0.02 64 1013.3
20260502151100 51 80 4.0 13.0 0.00 0.03 0.02 64 1013.3
20260502150858 51 31 6.0 13.0 0.00 0.03 0.02 66 1013.2
20260502150759 51 45 5.0 13.0 0.00 0.03 0.02 66 1013.3
20260502150700 51 28 2.0 13.0 0.00 0.03 0.02 64 1013.3
20260502150600 51 28 3.0 13.0 0.00 0.03 0.02 65 1013.3
20260502150504 51 9 7.0 12.0 0.00 0.03 0.02 67 1013.3
20260502150358 51 31 6.0 12.0 0.00 0.03 0.02 64 1013.2
20260502150259 52 350 5.0 9.0 0.00 0.03 0.02 63 1013.2
20260502150200 52 5 3.0 12.0 0.00 0.03 0.02 64 1013.2
20260502130557 47 345 3.0 12.0 0.00 0.03 0.02 83 1013.3
20260502130500 47 288 2.0 12.0 0.00 0.03 0.02 84 1013.3
20260502130358 47 288 2.0 12.0 0.00 0.03 0.02 83 1013.3
20260502130259 46 303 1.0 12.0 0.00 0.03 0.02 82 1013.3
20260502130158 46 311 1.0 12.0 0.00 0.03 0.02 82 1013.4
20260502123759 45 36 2.0 8.0 0.00 0.03 0.02 84 1013.2
20260502123700 45 341 0.0 8.0 0.00 0.03 0.02 83 1013.2
20260502123504 45 351 6.0 8.0 0.00 0.03 0.02 83 1013.3
20260502123359 45 338 3.0 8.0 0.00 0.03 0.02 84 1013.3
20260502123300 45 288 2.0 8.0 0.00 0.03 0.02 84 1013.4
20260502123159 45 269 3.0 8.0 0.00 0.03 0.02 84 1013.3
20260502123005 45 316 3.0 8.0 0.00 0.03 0.02 84 1013.4
20260502122859 45 360 2.0 8.0 0.00 0.03 0.02 84 1013.4
20260502122800 45 326 3.0 8.0 0.00 0.03 0.02 84 1013.4
20260502122700 45 309 2.0 6.0 0.00 0.03 0.02 84 1013.4
20260502122559 45 308 4.0 6.0 0.00 0.03 0.02 84 1013.4
20260502122504 44 307 1.0 6.0 0.00 0.03 0.02 84 1013.5
20260502122258 44 333 4.0 7.0 0.00 0.03 0.02 83 1013.5
20260502122201 44 344 3.0 5.0 0.00 0.03 0.02 83 1013.5
20260502122001 44 304 4.0 4.0 0.00 0.03 0.02 85 1013.5
20260502121859 44 328 3.0 4.0 0.00 0.03 0.02 85 1013.5
20260502121800 44 331 2.0 4.0 0.00 0.03 0.02 85 1013.5
20260502121701 44 336 1.0 4.0 0.00 0.03 0.02 85 1013.5
20260502121500 44 360 2.0 9.0 0.00 0.03 0.02 85 1013.4
20260502121359 44 9 3.0 9.0 0.00 0.03 0.02 85 1013.5
20260502121101 44 332 2.0 9.0 0.00 0.03 0.02 84 1013.4
20260502121002 44 333 2.0 9.0 0.00 0.03 0.02 84 1013.4
20260502120900 44 321 4.0 9.0 0.00 0.03 0.02 84 1013.4
20260502120800 44 355 4.0 9.0 0.00 0.03 0.02 84 1013.4
20260502120659 44 339 4.0 9.0 0.00 0.03 0.02 84 1013.4
20260502120600 44 327 4.0 9.0 0.00 0.03 0.02 85 1013.4
20260502120400 44 281 2.0 10.0 0.00 0.03 0.02 85 1013.4
20260502120259 44 343 2.0 10.0 0.00 0.03 0.02 85 1013.3
20260502120200 44 344 1.0 10.0 0.00 0.03 0.02 85 1013.4
20260502115858 43 10 1.0 10.0 0.00 0.03 0.02 84 1013.3
20260502115659 43 340 5.0 10.0 0.00 0.03 0.02 84 1013.3
20260502115558 43 328 8.0 8.0 0.00 0.03 0.02 84 1013.3
20260502115459 43 312 4.0 5.0 0.00 0.03 0.02 85 1013.3
20260502115358 43 329 4.0 6.0 0.00 0.03 0.02 85 1013.3
20260502115258 43 344 4.0 6.0 0.00 0.03 0.02 85 1013.2
20260502115159 43 333 4.0 6.0 0.00 0.03 0.02 85 1013.2
20260502114959 43 303 3.0 8.0 0.00 0.03 0.02 85 1013.2
20260502114858 43 302 0.0 8.0 0.00 0.03 0.02 85 1013.3
20260502114701 43 322 4.0 8.0 0.00 0.03 0.02 85 1013.3
20260502114500 43 12 1.0 8.0 0.00 0.03 0.02 85 1013.2
20260502114358 43 320 3.0 8.0 0.00 0.03 0.02 85 1013.2
20260502114159 43 355 3.0 8.0 0.00 0.03 0.02 85 1013.2
20260502114058 43 337 6.0 6.0 0.00 0.03 0.02 85 1013.2
20260502113959 43 315 2.0 6.0 0.00 0.03 0.02 85 1013.2
20260502113858 43 333 3.0 6.0 0.00 0.03 0.02 85 1013.2
20260502113758 43 19 4.0 6.0 0.00 0.03 0.02 86 1013.2
20260502113700 43 360 2.0 5.0 0.00 0.03 0.02 86 1013.2
20260502113557 43 360 2.0 8.0 0.00 0.03 0.02 85 1013.2
20260502113459 43 343 2.0 8.0 0.00 0.03 0.02 85 1013.2
20260502113358 43 328 1.0 8.0 0.00 0.03 0.02 85 1013.2
20260502113300 43 328 3.0 8.0 0.00 0.03 0.02 85 1013.2
20260502113157 43 326 1.0 8.0 0.00 0.03 0.02 86 1013.2
20260502113059 43 331 4.0 8.0 0.00 0.03 0.02 85 1013.1
20260502112959 43 355 1.0 8.0 0.00 0.03 0.02 85 1013.1
20260502112858 43 355 2.0 8.0 0.00 0.03 0.02 85 1013.1
20260502112758 43 355 3.0 8.0 0.00 0.03 0.02 85 1013.1
20260502112557 43 5 1.0 8.0 0.00 0.03 0.02 86 1013.1
20260502112258 43 5 3.0 8.0 0.00 0.03 0.02 86 1013.2
20260502112200 43 355 2.0 8.0 0.00 0.03 0.02 85 1013.2
20260502112059 43 355 3.0 8.0 0.00 0.03 0.02 85 1013.2
20260502111959 43 12 3.0 5.0 0.00 0.03 0.02 85 1013.1
20260502111858 43 14 2.0 5.0 0.00 0.03 0.02 85 1013.1
20260502111758 43 5 2.0 5.0 0.00 0.03 0.02 85 1013.1
20260502111658 43 319 2.0 5.0 0.00 0.03 0.02 85 1013.1
20260502111459 43 360 3.0 5.0 0.00 0.03 0.02 86 1013.0
20260502111058 43 337 4.0 6.0 0.00 0.03 0.02 86 1012.9
20260502111001 43 19 2.0 6.0 0.00 0.03 0.02 86 1012.8
20260502110857 43 5 1.0 6.0 0.00 0.03 0.02 86 1012.8
20260502110758 43 5 4.0 6.0 0.00 0.03 0.02 86 1012.9
20260502110657 43 35 0.0 6.0 0.00 0.03 0.02 86 1012.9
20260502110558 43 35 1.0 6.0 0.00 0.03 0.02 86 1012.9
20260502110459 43 24 4.0 6.0 0.00 0.03 0.02 86 1013.0
20260502110257 43 324 1.0 5.0 0.00 0.03 0.02 87 1013.0
20260502110158 42 323 0.0 5.0 0.00 0.03 0.02 87 1013.0
20260502110059 43 324 1.0 5.0 0.00 0.03 0.02 87 1013.0
20260502110000 43 340 3.0 4.0 0.00 0.03 0.02 87 1013.1
20260502105858 43 344 2.0 4.0 0.00 0.03 0.02 88 1013.1
20260502105758 43 344 2.0 4.0 0.00 0.03 0.02 88 1013.1
20260502105658 43 344 3.0 4.0 0.00 0.03 0.02 88 1013.1
20260502105557 43 344 3.0 4.0 0.00 0.03 0.02 88 1013.1
20260502105500 42 344 2.0 4.0 0.00 0.03 0.02 88 1013.1
20260502105358 42 344 1.0 4.0 0.00 0.03 0.02 88 1013.1
20260502105259 42 344 2.0 4.0 0.00 0.03 0.02 88 1013.1
20260502104959 42 338 0.0 4.0 0.00 0.03 0.02 88 1013.1
20260502104858 42 338 0.0 4.0 0.00 0.03 0.02 88 1013.2
20260502104758 42 338 0.0 4.0 0.00 0.03 0.02 88 1013.2
20260502104658 42 338 2.0 4.0 0.00 0.03 0.02 88 1013.2
20260502104559 42 338 1.0 4.0 0.00 0.03 0.02 88 1013.1
20260502104358 42 338 0.0 4.0 0.00 0.03 0.02 88 1013.1
20260502104258 42 338 0.0 4.0 0.00 0.03 0.02 88 1013.0
20260502104159 42 338 1.0 4.0 0.00 0.03 0.02 88 1013.1
20260502104059 42 338 2.0 4.0 0.00 0.03 0.02 88 1013.0
20260502103959 42 321 0.0 3.0 0.00 0.03 0.02 88 1013.0
20260502103858 42 321 0.0 3.0 0.00 0.03 0.02 88 1013.0
20260502103757 42 321 2.0 3.0 0.00 0.03 0.02 88 1013.0
20260502103658 42 321 2.0 3.0 0.00 0.03 0.02 88 1013.0
20260502103558 42 321 0.0 3.0 0.00 0.03 0.02 87 1013.0
20260502103458 42 321 0.0 3.0 0.00 0.03 0.02 87 1013.0
20260502103357 42 321 0.0 3.0 0.00 0.03 0.02 87 1013.0
20260502103259 42 321 1.0 3.0 0.00 0.03 0.02 86 1013.0
20260502103157 42 321 0.0 4.0 0.00 0.03 0.02 86 1013.0
20260502102958 42 318 0.0 4.0 0.00 0.03 0.02 86 1013.0
20260502102858 42 318 1.0 4.0 0.00 0.03 0.02 86 1013.0
20260502102800 42 315 2.0 4.0 0.00 0.03 0.02 85 1013.0
20260502102658 43 313 0.0 4.0 0.00 0.03 0.02 85 1013.0
20260502102559 43 313 1.0 4.0 0.00 0.03 0.02 85 1013.0
20260502102501 43 313 0.0 4.0 0.00 0.03 0.02 85 1013.0
20260502102358 43 313 1.0 4.0 0.00 0.03 0.02 84 1013.0
20260502102257 43 313 2.0 4.0 0.00 0.03 0.02 84 1013.0
20260502102058 43 298 3.0 4.0 0.00 0.03 0.02 84 1013.0
20260502101758 43 294 0.0 4.0 0.00 0.03 0.02 84 1012.9
20260502101658 43 294 0.0 4.0 0.00 0.03 0.02 84 1012.9
20260502101557 43 294 0.0 4.0 0.00 0.03 0.02 84 1012.9
20260502101459 43 294 1.0 4.0 0.00 0.03 0.02 84 1012.9
20260502101358 43 294 1.0 4.0 0.00 0.03 0.02 84 1013.0
20260502101259 43 294 4.0 4.0 0.00 0.03 0.02 85 1012.8
20260502101158 43 296 1.0 5.0 0.00 0.03 0.02 85 1012.8
20260502101059 43 296 1.0 5.0 0.00 0.03 0.02 84 1012.8
20260502101000 43 296 1.0 5.0 0.00 0.03 0.02 84 1012.8
20260502100858 43 296 2.0 5.0 0.00 0.03 0.02 84 1012.7
20260502100658 43 295 1.0 5.0 0.00 0.03 0.02 85 1012.7
20260502100558 43 28 3.0 5.0 0.00 0.03 0.02 85 1012.6
20260502100459 43 331 3.0 5.0 0.00 0.03 0.02 85 1012.6
20260502100258 43 332 2.0 5.0 0.00 0.03 0.02 86 1012.7
20260502100158 43 336 2.0 5.0 0.00 0.03 0.02 86 1012.7
20260502091501 44 315 1.0 5.0 0.00 0.03 0.02 92 1012.2
20260502091358 44 313 0.0 5.0 0.00 0.03 0.02 92 1012.3
20260502091157 44 313 2.0 5.0 0.00 0.03 0.02 92 1012.2
20260502091057 44 313 1.0 5.0 0.00 0.03 0.02 92 1012.2
20260502091000 44 319 3.0 5.0 0.00 0.03 0.02 92 1012.2
20260502090859 44 328 3.0 5.0 0.00 0.03 0.02 92 1012.2
20260502090758 44 328 3.0 5.0 0.00 0.03 0.02 92 1012.2
20260502090700 44 328 2.0 5.0 0.00 0.03 0.02 92 1012.3
20260502090559 44 24 3.0 4.0 0.00 0.03 0.02 93 1012.3
20260502090500 44 30 1.0 4.0 0.00 0.03 0.02 93 1012.3
20260502090358 44 30 2.0 4.0 0.00 0.03 0.02 93 1012.3
20260502090159 44 31 2.0 4.0 0.00 0.03 0.02 93 1012.4
20260502071501 47 250 0.0 3.0 0.00 0.02 0.01 94 1010.9
20260502071357 47 250 0.0 3.0 0.00 0.02 0.01 94 1010.9
20260502071259 47 250 2.0 2.0 0.00 0.02 0.01 94 1010.8
20260502071158 47 250 0.0 2.0 0.00 0.02 0.01 94 1010.8
20260502071000 47 250 0.0 2.0 0.00 0.02 0.01 94 1010.7
20260502070858 47 250 0.0 2.0 0.00 0.02 0.01 93 1010.8
20260502070758 47 250 1.0 3.0 0.00 0.02 0.01 93 1010.7
20260502070659 47 250 0.0 3.0 0.00 0.02 0.01 93 1010.8
20260502070558 47 250 1.0 3.0 0.00 0.02 0.01 93 1010.8
20260502070358 47 250 1.0 6.0 0.00 0.02 0.01 93 1010.8
20260502070158 47 248 0.0 6.0 0.00 0.02 0.01 93 1010.8
20260502070057 47 248 0.0 6.0 0.00 0.02 0.01 93 1010.8
20260502065958 47 248 1.0 6.0 0.00 0.02 0.01 93 1010.8
20260502065857 47 248 1.0 6.0 0.00 0.02 0.01 93 1010.8
20260502065759 47 248 1.0 6.0 0.00 0.02 0.01 93 1010.9
20260502065658 47 248 0.0 6.0 0.00 0.02 0.01 93 1010.9
20260502065459 47 254 0.0 3.0 0.00 0.02 0.01 93 1010.8
20260502065359 47 264 0.0 3.0 0.00 0.02 0.01 93 1010.7
20260502065300 47 264 0.0 3.0 0.00 0.02 0.01 93 1010.8
20260502065158 47 264 1.0 3.0 0.00 0.02 0.01 93 1010.9
20260502065100 47 263 0.0 3.0 0.00 0.02 0.01 93 1010.9
20260502064959 47 263 1.0 3.0 0.00 0.02 0.01 93 1010.9
20260502064759 47 263 0.0 3.0 0.00 0.02 0.01 93 1010.9
20260502064500 47 263 3.0 3.0 0.00 0.02 0.01 93 1010.9
20260502064358 47 264 1.0 3.0 0.00 0.02 0.01 93 1011.0
20260502064258 47 265 1.0 3.0 0.00 0.02 0.01 93 1011.0
20260502064158 47 265 0.0 3.0 0.00 0.02 0.01 93 1010.9
20260502063857 47 265 1.0 3.0 0.00 0.02 0.01 93 1011.0
20260502063759 47 265 1.0 3.0 0.00 0.02 0.01 93 1011.0
20260502063700 48 265 1.0 3.0 0.00 0.02 0.01 93 1011.0
20260502063558 48 5 0.0 0.0 0.00 0.02 0.01 93 1011.0
20260502063501 48 5 0.0 0.0 0.00 0.02 0.01 93 1011.0
20260502063400 48 5 0.0 0.0 0.00 0.02 0.01 93 1011.0
20260502063300 48 5 0.0 0.0 0.00 0.02 0.01 93 1011.0
20260502063059 48 5 0.0 0.0 0.00 0.02 0.01 93 1011.0
20260502062959 48 5 0.0 0.0 0.00 0.02 0.01 93 1011.1
20260502062801 48 5 0.0 0.0 0.00 0.02 0.01 93 1011.1
20260502062659 48 5 0.0 0.0 0.00 0.02 0.01 93 1011.1
20260502062558 48 5 0.0 0.0 0.00 0.02 0.01 93 1011.0
20260502062501 48 5 0.0 0.0 0.00 0.02 0.01 93 1011.0
20260502062358 48 5 0.0 0.0 0.00 0.02 0.01 93 1011.0
20260502062259 48 5 0.0 0.0 0.00 0.02 0.01 93 1011.0
20260502062157 48 5 0.0 0.0 0.00 0.02 0.01 93 1011.0
20260502061859 48 5 0.0 0.0 0.00 0.02 0.01 93 1011.1
20260502061757 48 5 0.0 0.0 0.00 0.02 0.01 93 1011.1
20260502061659 48 5 0.0 0.0 0.00 0.02 0.01 93 1011.1
20260502061559 48 5 0.0 0.0 0.00 0.02 0.01 93 1011.1
20260502061357 48 5 0.0 0.0 0.00 0.02 0.01 93 1011.1
20260502061258 48 5 0.0 0.0 0.00 0.02 0.01 93 1011.2
20260502061159 48 5 0.0 0.0 0.00 0.02 0.01 93 1011.2
20260502061057 48 5 0.0 0.0 0.00 0.02 0.01 93 1011.2
20260502060958 48 5 0.0 0.0 0.00 0.02 0.01 93 1011.1
20260502060858 48 5 0.0 0.0 0.00 0.02 0.01 93 1011.1
20260502060658 48 5 0.0 0.0 0.00 0.02 0.01 93 1011.1
20260502060357 48 5 0.0 0.0 0.00 0.02 0.01 93 1011.2
20260502060258 48 5 0.0 0.0 0.00 0.02 0.01 93 1011.2
20260502060158 48 5 0.0 0.0 0.00 0.02 0.01 93 1011.2
20260502060058 48 5 0.0 0.0 0.00 0.02 0.01 93 1011.1
20260502055959 48 5 0.0 0.0 0.00 0.02 0.01 93 1011.1
20260502055857 48 5 0.0 1.0 0.00 0.02 0.01 93 1011.2
20260502055757 48 5 0.0 1.0 0.00 0.02 0.01 93 1011.2
20260502055657 48 5 0.0 1.0 0.00 0.02 0.01 93 1011.2
20260502055557 48 5 0.0 2.0 0.00 0.02 0.01 93 1011.1
20260502055458 48 5 0.0 2.0 0.00 0.02 0.01 93 1011.1
20260502055257 48 5 0.0 2.0 0.00 0.02 0.01 93 1011.1
20260502055057 48 5 0.0 2.0 0.00 0.02 0.01 93 1011.1
20260502054857 48 5 0.0 2.0 0.00 0.02 0.01 93 1011.1
20260502054757 48 5 0.0 2.0 0.00 0.02 0.01 93 1011.1
20260502054658 48 5 1.0 2.0 0.00 0.02 0.01 93 1011.2
20260502054458 48 5 0.0 1.0 0.00 0.02 0.01 93 1011.2
20260502054357 48 5 0.0 1.0 0.00 0.02 0.01 93 1011.2
20260502054258 48 5 0.0 1.0 0.00 0.02 0.01 93 1011.2
20260502054157 48 5 0.0 1.0 0.00 0.02 0.01 93 1011.2
20260502054000 48 5 0.0 1.0 0.00 0.02 0.01 93 1011.2
20260502053857 48 5 0.0 1.0 0.00 0.02 0.01 93 1011.2
20260502053758 48 5 0.0 1.0 0.00 0.02 0.01 93 1011.2
20260502053657 48 5 0.0 1.0 0.00 0.02 0.01 93 1011.2
20260502053557 48 5 0.0 1.0 0.00 0.02 0.01 93 1011.2
20260502053459 48 5 0.0 0.0 0.00 0.02 0.01 93 1011.2
20260502053357 48 5 0.0 0.0 0.00 0.02 0.01 93 1011.2
20260502053259 48 5 0.0 0.0 0.00 0.02 0.01 93 1011.2
20260502053157 48 5 0.0 0.0 0.00 0.02 0.01 93 1011.3
20260502053000 48 5 0.0 0.0 0.00 0.02 0.01 93 1011.3
20260502052857 48 5 0.0 0.0 0.00 0.02 0.01 93 1011.2
20260502052759 48 5 0.0 0.0 0.00 0.02 0.01 93 1011.2
20260502052658 48 5 0.0 0.0 0.00 0.02 0.01 93 1011.2
20260502052459 48 5 0.0 0.0 0.00 0.02 0.01 93 1011.2
20260502052357 48 5 0.0 0.0 0.00 0.02 0.01 93 1011.2
20260502052259 48 5 0.0 0.0 0.00 0.02 0.01 93 1011.2
20260502052158 48 5 0.0 0.0 0.00 0.02 0.01 93 1011.2
20260502051958 48 5 0.0 0.0 0.00 0.02 0.01 93 1011.2
20260502051857 48 5 0.0 0.0 0.00 0.02 0.01 93 1011.2
20260502051557 48 5 0.0 0.0 0.00 0.02 0.01 93 1011.3
20260502051458 48 5 0.0 0.0 0.00 0.02 0.01 93 1011.3
20260502051357 48 5 0.0 0.0 0.00 0.02 0.01 93 1011.3
20260502051200 48 5 0.0 0.0 0.00 0.02 0.01 93 1011.4
20260502051057 48 5 0.0 0.0 0.00 0.02 0.01 93 1011.4
20260502050959 48 5 0.0 1.0 0.00 0.02 0.01 93 1011.4
20260502050857 48 5 0.0 2.0 0.00 0.02 0.01 93 1011.4
20260502050757 48 5 0.0 2.0 0.00 0.02 0.01 93 1011.4
20260502050557 48 5 0.0 2.0 0.00 0.02 0.01 93 1011.4
20260502050459 48 5 0.0 2.0 0.00 0.02 0.01 93 1011.4
20260502050358 48 5 0.0 2.0 0.00 0.02 0.01 94 1011.4
20260502050258 48 5 0.0 2.0 0.01 0.02 0.01 94 1011.4
20260502050157 48 5 0.0 2.0 0.01 0.02 0.01 94 1011.4
20260502050057 48 5 0.0 2.0 0.01 0.02 0.01 94 1011.4
20260502050004 49 5 1.0 1.0 0.01 0.02 0.01 94 1011.4
20260502045858 49 5 0.0 1.0 0.01 0.02 0.01 94 1011.5
20260502045758 49 5 0.0 1.0 0.01 0.02 0.01 94 1011.5
20260502045658 49 5 0.0 1.0 0.01 0.02 0.01 94 1011.5
20260502045600 49 5 0.0 1.0 0.01 0.02 0.01 94 1011.5
20260502045359 49 5 0.0 0.0 0.01 0.02 0.01 94 1011.5
20260502045259 49 5 0.0 0.0 0.01 0.02 0.01 94 1011.5
20260502045158 49 5 0.0 0.0 0.01 0.02 0.01 94 1011.5
20260502045058 49 5 0.0 0.0 0.01 0.02 0.01 94 1011.6
20260502044959 49 5 0.0 0.0 0.01 0.02 0.01 94 1011.6
20260502044857 49 5 0.0 0.0 0.01 0.02 0.01 94 1011.6
20260502044758 49 5 0.0 0.0 0.01 0.02 0.01 94 1011.6
20260502044659 49 5 0.0 0.0 0.01 0.02 0.01 94 1011.6
20260502044505 49 5 0.0 0.0 0.01 0.02 0.01 94 1011.6
20260502044359 49 5 0.0 0.0 0.01 0.02 0.01 94 1011.6
20260502044157 49 5 0.0 0.0 0.01 0.02 0.01 94 1011.6
20260502044059 49 5 0.0 0.0 0.01 0.02 0.01 94 1011.6
20260502043959 49 5 0.0 0.0 0.01 0.02 0.01 94 1011.6
20260502043858 49 5 0.0 0.0 0.01 0.02 0.01 94 1011.6
20260502043658 49 5 0.0 0.0 0.01 0.02 0.01 94 1011.6
20260502043558 48 5 0.0 0.0 0.01 0.02 0.01 94 1011.6
20260502043500 48 5 0.0 0.0 0.01 0.02 0.01 94 1011.6
20260502043358 48 5 0.0 0.0 0.01 0.02 0.01 94 1011.6
20260502043259 48 5 0.0 0.0 0.01 0.02 0.01 94 1011.6
20260502043158 48 5 0.0 0.0 0.01 0.02 0.01 94 1011.5
20260502043058 48 5 0.0 0.0 0.01 0.02 0.01 94 1011.4
20260502043000 48 5 0.0 0.0 0.01 0.02 0.01 94 1011.4
20260502042859 48 5 0.0 0.0 0.01 0.02 0.01 94 1011.4
20260502042759 48 5 0.0 0.0 0.01 0.02 0.01 94 1011.4
20260502042659 48 5 0.0 0.0 0.01 0.02 0.01 94 1011.3
20260502042459 48 5 0.0 0.0 0.01 0.02 0.01 94 1011.2
20260502042358 48 5 0.0 0.0 0.01 0.02 0.01 94 1011.2
20260502042258 48 5 0.0 0.0 0.01 0.02 0.01 94 1011.2
20260502042159 48 5 0.0 0.0 0.01 0.02 0.01 94 1011.2
20260502042058 48 5 0.0 0.0 0.01 0.02 0.01 94 1011.2
20260502041959 48 5 0.0 0.0 0.01 0.02 0.01 94 1011.1
20260502041859 48 5 0.0 0.0 0.01 0.02 0.01 94 1011.1
20260502041759 48 5 0.0 0.0 0.01 0.02 0.01 94 1011.2
20260502041558 48 5 0.0 0.0 0.01 0.02 0.01 94 1011.1
20260502041459 48 5 0.0 0.0 0.01 0.02 0.01 94 1011.1
20260502041358 48 5 0.0 0.0 0.01 0.02 0.01 94 1011.1
20260502041159 48 5 0.0 0.0 0.02 0.02 0.01 94 1011.2
20260502041058 48 5 0.0 0.0 0.02 0.02 0.01 94 1011.1
20260502040859 48 5 0.0 0.0 0.02 0.02 0.01 94 1011.2
20260502040758 48 5 0.0 0.0 0.02 0.02 0.01 94 1011.2
20260502040659 48 5 0.0 0.0 0.02 0.02 0.01 94 1011.2
20260502040558 48 5 0.0 0.0 0.02 0.02 0.01 94 1011.1
20260502040500 48 5 0.0 0.0 0.02 0.02 0.01 94 1011.1
20260502040358 48 5 0.0 0.0 0.02 0.02 0.01 94 1011.1
20260502040259 48 5 0.0 0.0 0.01 0.01 0.00 94 1011.1
20260502040159 49 5 0.0 0.0 0.01 0.01 0.00 94 1011.1
20260502040004 49 5 0.0 0.0 0.01 0.01 0.01 94 1011.1
20260502035859 49 5 0.0 0.0 0.01 0.01 0.01 94 1011.1
20260502035759 49 5 0.0 0.0 0.01 0.01 0.01 94 1011.1
20260502035659 49 5 0.0 0.0 0.01 0.01 0.01 94 1011.1
20260502035600 49 5 0.0 0.0 0.01 0.01 0.01 94 1011.1
20260502035504 49 5 0.0 0.0 0.01 0.01 0.01 94 1011.1
20260502035300 49 5 0.0 0.0 0.01 0.01 0.01 94 1011.0
20260502035059 49 5 0.0 0.0 0.01 0.01 0.01 94 1011.0
20260502034900 49 5 0.0 0.0 0.01 0.01 0.01 93 1011.1
20260502034658 49 5 0.0 0.0 0.01 0.01 0.01 93 1011.1
20260502034500 49 5 0.0 1.0 0.01 0.01 0.01 93 1011.1
20260502034259 49 5 0.0 2.0 0.01 0.01 0.01 93 1011.1
20260502034201 49 5 0.0 2.0 0.01 0.01 0.01 93 1011.1
20260502034100 49 5 0.0 2.0 0.01 0.01 0.01 93 1011.1
20260502034001 49 5 0.0 2.0 0.01 0.01 0.01 93 1011.2
20260502033859 49 5 0.0 2.0 0.01 0.01 0.01 93 1011.2
20260502033759 49 5 0.0 2.0 0.01 0.01 0.01 93 1011.3
20260502033659 49 5 0.0 2.0 0.01 0.01 0.01 92 1011.2
20260502033600 49 5 0.0 2.0 0.01 0.01 0.01 92 1011.3
20260502033503 49 5 1.0 2.0 0.01 0.01 0.01 92 1011.3
20260502033359 49 5 0.0 2.0 0.01 0.01 0.01 92 1011.2
20260502033300 49 5 0.0 2.0 0.01 0.01 0.01 92 1011.3
20260502033200 49 5 1.0 2.0 0.01 0.01 0.01 92 1011.2
20260502033100 49 5 0.0 1.0 0.01 0.01 0.01 92 1011.2
20260502033003 49 5 0.0 1.0 0.01 0.01 0.01 91 1011.2
20260502032900 49 5 0.0 1.0 0.01 0.01 0.01 91 1011.3
20260502032759 49 5 0.0 1.0 0.01 0.01 0.01 91 1011.3
20260502032701 50 5 0.0 1.0 0.01 0.01 0.01 91 1011.3
20260502032559 50 5 0.0 1.0 0.01 0.01 0.01 91 1011.4
20260502032500 50 5 0.0 1.0 0.01 0.01 0.01 91 1011.4
20260502032359 50 5 0.0 1.0 0.01 0.01 0.01 90 1011.5
20260502032058 50 5 0.0 2.0 0.01 0.01 0.01 90 1011.5
20260502032005 50 5 0.0 2.0 0.01 0.01 0.01 90 1011.4
20260502031859 50 5 0.0 2.0 0.01 0.01 0.01 89 1011.4
20260502031801 50 5 0.0 2.0 0.01 0.01 0.01 89 1011.5
20260502031601 50 5 1.0 2.0 0.01 0.01 0.01 88 1011.3
20260502031505 50 5 0.0 2.0 0.01 0.01 0.01 88 1011.3
20260502031301 50 5 0.0 2.0 0.00 0.00 0.00 88 1011.3
20260502031101 50 5 0.0 1.0 0.00 0.00 0.00 88 1011.4
20260502031001 50 5 0.0 2.0 0.00 0.00 0.00 88 1011.3
20260502030900 50 5 0.0 2.0 0.00 0.00 0.00 88 1011.3
20260502030800 50 5 1.0 2.0 0.00 0.00 0.00 88 1011.3
20260502030659 50 5 0.0 2.0 0.00 0.00 0.00 88 1011.2
20260502030501 50 5 0.0 3.0 0.00 0.00 0.00 88 1011.2
20260502030400 50 5 0.0 3.0 0.00 0.00 0.00 88 1011.1
20260502030301 50 5 0.0 3.0 0.00 0.00 0.00 87 1011.0
20260502030200 50 5 0.0 3.0 0.00 0.00 0.00 87 1011.0
20260502030100 50 5 2.0 5.0 0.00 0.00 0.00 87 1011.0
20260502030005 50 5 2.0 5.0 0.00 0.00 0.00 87 1011.0
20260502025900 50 5 0.0 5.0 0.00 0.00 0.00 88 1011.0
20260502025801 50 5 0.0 5.0 0.00 0.00 0.00 87 1010.9
20260502025705 50 5 1.0 8.0 0.00 0.00 0.00 87 1010.9
20260502025504 50 5 1.0 8.0 0.00 0.00 0.00 87 1010.9
20260502025300 50 5 2.0 9.0 0.00 0.00 0.00 87 1010.8
20260502025200 50 5 2.0 9.0 0.00 0.00 0.00 87 1010.8
20260502025101 50 46 1.0 10.0 0.00 0.00 0.00 87 1010.8
20260502025005 50 45 2.0 10.0 0.00 0.00 0.00 87 1010.8
20260502024900 50 57 1.0 10.0 0.00 0.00 0.00 87 1010.7
20260502024701 50 5 5.0 10.0 0.00 0.00 0.00 87 1010.8
20260502024505 50 39 9.0 10.0 0.00 0.00 0.00 87 1010.8
20260502024400 50 9 2.0 10.0 0.00 0.00 0.00 87 1010.8
20260502024301 50 30 4.0 10.0 0.00 0.00 0.00 87 1010.8
20260502024200 50 360 4.0 9.0 0.00 0.00 0.00 87 1010.9
20260502024102 50 34 2.0 9.0 0.00 0.00 0.00 87 1010.8
20260502024006 50 74 3.0 9.0 0.00 0.00 0.00 87 1010.7
20260502023900 50 67 0.0 9.0 0.00 0.00 0.00 87 1010.7
20260502023802 50 67 0.0 9.0 0.00 0.00 0.00 87 1010.8
20260502023700 50 19 5.0 9.0 0.00 0.00 0.00 87 1010.7
20260502023601 50 38 3.0 9.0 0.00 0.00 0.00 87 1010.7
20260502023401 50 57 3.0 10.0 0.00 0.00 0.00 87 1010.8
20260502023200 50 360 3.0 10.0 0.00 0.00 0.00 87 1010.8
20260502023100 50 17 0.0 10.0 0.00 0.00 0.00 87 1010.9
20260502023005 50 17 3.0 10.0 0.00 0.00 0.00 87 1010.9
20260502022900 50 338 3.0 10.0 0.00 0.00 0.00 87 1010.9
20260502022800 51 317 2.0 10.0 0.00 0.00 0.00 87 1010.9
20260502022701 51 17 3.0 10.0 0.00 0.00 0.00 87 1010.9
20260502022559 51 53 4.0 10.0 0.00 0.00 0.00 87 1010.9
20260502022504 51 13 4.0 6.0 0.00 0.00 0.00 87 1010.9
20260502022401 51 5 4.0 7.0 0.00 0.00 0.00 87 1011.0
20260502022300 51 59 0.0 5.0 0.00 0.00 0.00 87 1010.9
20260502022200 51 59 0.0 5.0 0.00 0.00 0.00 87 1010.9
20260502022101 51 59 0.0 5.0 0.00 0.00 0.00 87 1010.9
20260502022004 51 59 1.0 5.0 0.00 0.00 0.00 87 1010.9
20260502021901 51 59 2.0 5.0 0.00 0.00 0.00 87 1010.9
20260502021700 51 28 0.0 5.0 0.00 0.00 0.00 87 1010.9
20260502021600 51 28 1.0 5.0 0.00 0.00 0.00 87 1010.9
20260502021505 51 28 0.0 5.0 0.00 0.00 0.00 87 1010.9
20260502021359 51 28 3.0 5.0 0.00 0.00 0.00 87 1011.0
20260502021300 51 9 3.0 4.0 0.00 0.00 0.00 87 1011.0
20260502021200 51 9 2.0 4.0 0.00 0.00 0.00 86 1011.0
20260502021101 51 9 0.0 4.0 0.00 0.00 0.00 86 1011.0
20260502021005 51 16 2.0 4.0 0.00 0.00 0.00 86 1011.0
20260502020901 51 16 2.0 4.0 0.00 0.00 0.00 86 1011.1
20260502020700 51 9 2.0 4.0 0.00 0.00 0.00 86 1011.2
20260502020504 51 9 1.0 5.0 0.00 0.00 0.00 86 1011.1
20260502020401 51 9 0.0 5.0 0.00 0.00 0.00 86 1011.2
20260502020302 51 9 2.0 6.0 0.00 0.00 0.00 86 1011.2
20260502020201 51 9 2.0 6.0 0.00 0.00 0.00 86 1011.1
20260502020059 51 9 0.0 6.0 0.00 0.00 0.00 86 1011.2
20260502020005 51 9 1.0 6.0 0.00 0.00 0.00 86 1011.2
20260502015858 51 9 0.0 6.0 0.00 0.00 0.00 86 1011.2
20260502015759 51 9 1.0 6.0 0.00 0.00 0.00 86 1011.2
20260502015659 51 9 2.0 6.0 0.00 0.00 0.00 86 1011.2
20260502015600 51 9 3.0 6.0 0.00 0.00 0.00 86 1011.2
20260502015505 51 50 3.0 6.0 0.00 0.00 0.00 86 1011.1
20260502015259 51 5 3.0 5.0 0.00 0.00 0.00 86 1011.1
20260502015202 51 360 5.0 5.0 0.00 0.00 0.00 86 1011.1
20260502015059 51 83 2.0 4.0 0.00 0.00 0.00 86 1011.0
20260502015003 51 85 3.0 4.0 0.00 0.00 0.00 86 1011.0
20260502014859 51 95 2.0 4.0 0.00 0.00 0.00 86 1011.0
20260502014759 51 95 4.0 4.0 0.00 0.00 0.00 86 1011.1
20260502014659 51 59 1.0 4.0 0.00 0.00 0.00 86 1011.0
20260502014600 51 59 2.0 4.0 0.00 0.00 0.00 86 1011.0
20260502014504 51 115 3.0 4.0 0.00 0.00 0.00 86 1011.0
20260502014359 51 115 1.0 4.0 0.00 0.00 0.00 87 1011.0
20260502014259 51 119 3.0 3.0 0.00 0.00 0.00 87 1011.0
20260502014058 51 119 1.0 2.0 0.00 0.00 0.00 87 1011.0
20260502014000 51 119 0.0 2.0 0.00 0.00 0.00 88 1010.9
20260502013900 51 119 1.0 2.0 0.00 0.00 0.00 88 1010.9
20260502013559 51 119 1.0 2.0 0.00 0.00 0.00 88 1010.9
20260502013501 51 119 2.0 2.0 0.00 0.00 0.00 88 1010.8
20260502013359 51 119 2.0 2.0 0.00 0.00 0.00 88 1010.7
20260502013059 51 120 0.0 1.0 0.00 0.00 0.00 87 1010.7
20260502013004 51 120 0.0 1.0 0.00 0.00 0.00 87 1010.7
20260502012901 51 120 0.0 1.0 0.00 0.00 0.00 87 1010.7
20260502012759 51 120 0.0 1.0 0.00 0.00 0.00 87 1010.6
20260502012259 51 120 0.0 2.0 0.00 0.00 0.00 87 1010.6
20260502012159 51 120 1.0 2.0 0.00 0.00 0.00 87 1010.5
20260502012100 51 120 0.0 2.0 0.00 0.00 0.00 87 1010.5
20260502012001 52 120 0.0 2.0 0.00 0.00 0.00 87 1010.4
20260502011858 52 120 0.0 2.0 0.00 0.00 0.00 87 1010.3
20260502011800 52 120 0.0 2.0 0.00 0.00 0.00 86 1010.3
20260502011659 52 120 0.0 2.0 0.00 0.00 0.00 86 1010.2
20260502011600 52 120 0.0 2.0 0.00 0.00 0.00 86 1010.2
20260502011359 52 119 1.0 3.0 0.00 0.00 0.00 86 1010.1
20260502011159 51 119 0.0 3.0 0.00 0.00 0.00 86 1010.1
20260502011059 51 119 1.0 3.0 0.00 0.00 0.00 85 1010.1
20260502011002 51 119 1.0 3.0 0.00 0.00 0.00 85 1010.1
20260502010700 51 120 1.0 3.0 0.00 0.00 0.00 85 1010.3
20260502010502 51 120 2.0 3.0 0.00 0.00 0.00 85 1010.2
20260502010401 51 118 0.0 0.0 0.00 0.00 0.00 85 1010.0
20260502010300 51 28 0.0 0.0 0.00 0.00 0.00 86 1010.1
20260502010200 51 28 0.0 0.0 0.00 0.00 0.00 86 1010.2
20260502010059 51 28 0.0 0.0 0.00 0.00 0.00 86 1010.1
20260502010006 51 28 0.0 0.0 0.00 0.00 0.00 86 1010.1
20260502005802 51 28 0.0 0.0 0.00 0.00 0.00 86 1009.9
20260502005659 51 28 0.0 0.0 0.00 0.00 0.00 86 1009.8
20260502005601 51 28 0.0 0.0 0.00 0.00 0.00 86 1009.8
20260502005506 51 28 0.0 0.0 0.00 0.00 0.00 85 1009.8
20260502005400 51 28 0.0 0.0 0.00 0.00 0.00 85 1009.8
20260502005301 51 28 0.0 0.0 0.00 0.00 0.00 85 1009.8
20260502005200 51 28 0.0 0.0 0.00 0.00 0.00 85 1009.8
20260502005100 51 28 0.0 0.0 0.00 0.00 0.00 85 1009.7
20260502005006 51 28 0.0 0.0 0.00 0.00 0.00 85 1009.7
20260502004900 51 27 0.0 0.0 0.00 0.00 0.00 85 1009.7
20260502004801 51 28 0.0 0.0 0.00 0.00 0.00 85 1009.7
20260502004701 51 28 0.0 0.0 0.00 0.00 0.00 85 1009.6
20260502004506 51 28 0.0 0.0 0.00 0.00 0.00 85 1009.7
20260502004400 51 28 0.0 0.0 0.00 0.00 0.00 85 1009.6
20260502004301 51 28 0.0 0.0 0.00 0.00 0.00 85 1009.6
20260502004102 51 28 0.0 0.0 0.00 0.00 0.00 85 1009.5
20260502004004 51 28 0.0 0.0 0.00 0.00 0.00 85 1009.5
20260502003901 51 28 0.0 0.0 0.00 0.00 0.00 85 1009.5
20260502003759 51 28 0.0 0.0 0.00 0.00 0.00 85 1009.4
20260502003700 51 28 0.0 0.0 0.00 0.00 0.00 86 1009.4
20260502003505 51 28 0.0 0.0 0.00 0.00 0.00 85 1009.4
20260502003401 51 28 0.0 0.0 0.00 0.00 0.00 86 1009.4
20260502003301 51 28 0.0 0.0 0.00 0.00 0.00 86 1009.4
20260502003200 51 28 0.0 0.0 0.00 0.00 0.00 86 1009.4
20260502003100 51 28 0.0 0.0 0.00 0.00 0.00 86 1009.3
20260502002901 51 28 0.0 0.0 0.00 0.00 0.00 86 1009.3
20260502002701 51 28 0.0 0.0 0.00 0.00 0.00 86 1009.3
20260502002601 51 28 0.0 0.0 0.00 0.00 0.00 87 1009.2
20260502002506 51 28 0.0 0.0 0.00 0.00 0.00 87 1009.2
20260502002400 51 27 0.0 0.0 0.00 0.00 0.00 87 1009.2
20260502002300 51 28 0.0 0.0 0.00 0.00 0.00 87 1009.1
20260502002201 51 28 0.0 0.0 0.00 0.00 0.00 87 1009.1
20260502002101 51 27 0.0 0.0 0.00 0.00 0.00 86 1009.1
20260502001900 51 28 0.0 0.0 0.00 0.00 0.00 87 1009.2
20260502001602 51 27 0.0 0.0 0.00 0.00 0.00 87 1009.1
20260502001504 51 28 0.0 0.0 0.00 0.00 0.00 86 1009.1
20260502001100 51 28 0.0 0.0 0.00 0.00 0.00 86 1009.1
20260502000900 51 28 0.0 0.0 0.00 0.00 0.00 86 1009.2
20260502000702 51 28 0.0 0.0 0.00 0.00 0.00 86 1009.2
20260502000601 51 28 0.0 0.0 0.00 0.00 0.00 86 1009.3
20260502000506 51 27 0.0 0.0 0.00 0.00 0.00 87 1009.3
20260502000402 51 28 0.0 0.0 0.00 0.00 0.00 87 1009.4
20260502000302 51 28 0.0 0.0 0.00 0.00 0.00 87 1009.4
20260502000200 51 28 0.0 0.0 0.00 0.00 0.00 88 1009.4
20260502000101 51 27 0.0 2.0 0.00 0.00 0.00 88 1009.5
20260502000005 51 28 0.0 2.0 0.00 0.00 0.00 88 1009.4
20260501235901 51 28 0.0 2.0 0.00 0.00 0.00 87 1009.4
20260501235801 51 28 0.0 2.0 0.00 0.00 0.00 87 1009.4
20260501235700 51 28 0.0 2.0 0.00 0.00 0.00 87 1009.3
20260501235400 51 28 0.0 2.0 0.00 0.00 0.00 87 1009.3
20260501235200 51 28 1.0 2.0 0.00 0.00 0.00 86 1009.3
20260501235100 51 27 0.0 2.0 0.00 0.00 0.00 86 1009.3
20260501235005 51 27 2.0 2.0 0.00 0.00 0.00 87 1009.4
20260501234659 52 28 0.0 0.0 0.00 0.00 0.00 88 1009.3
20260501234504 52 28 0.0 0.0 0.00 0.00 0.00 88 1009.3
20260501234400 52 27 0.0 2.0 0.00 0.00 0.00 87 1009.2
20260501234259 52 28 0.0 2.0 0.00 0.00 0.00 87 1009.3
20260501234201 52 28 0.0 2.0 0.00 0.00 0.00 86 1009.3
20260501234059 52 28 0.0 2.0 0.00 0.00 0.00 86 1009.2
20260501234005 52 28 0.0 2.0 0.00 0.00 0.00 85 1009.3
20260501233858 52 28 0.0 2.0 0.00 0.00 0.00 86 1009.3
20260501233801 52 28 0.0 2.0 0.00 0.00 0.00 86 1009.4
20260501233700 52 27 0.0 2.0 0.00 0.00 0.00 87 1009.3
20260501233504 52 28 0.0 2.0 0.00 0.00 0.00 87 1009.3
20260501233403 52 27 1.0 2.0 0.00 0.00 0.00 88 1009.3
20260501233300 52 28 2.0 2.0 0.00 0.00 0.00 88 1009.3
20260501233159 52 28 0.0 0.0 0.00 0.00 0.00 88 1009.3
20260501233100 52 28 0.0 0.0 0.00 0.00 0.00 88 1009.4
20260501233005 52 28 0.0 0.0 0.00 0.00 0.00 88 1009.4
20260501232859 52 28 0.0 0.0 0.00 0.00 0.00 89 1009.4
20260501232800 52 28 0.0 0.0 0.00 0.00 0.00 89 1009.4
20260501232700 52 28 0.0 0.0 0.00 0.00 0.00 89 1009.4
20260501232505 52 28 0.0 0.0 0.00 0.00 0.00 88 1009.4
20260501232259 52 28 0.0 0.0 0.00 0.00 0.00 88 1009.4
20260501232159 52 28 0.0 0.0 0.00 0.00 0.00 88 1009.5
20260501232100 52 28 0.0 0.0 0.00 0.00 0.00 88 1009.5
20260501232001 52 28 0.0 2.0 0.00 0.00 0.00 88 1009.5
20260501231859 52 28 0.0 2.0 0.00 0.00 0.00 87 1009.5
20260501231759 52 28 0.0 2.0 0.00 0.00 0.00 87 1009.5
20260501231700 52 28 0.0 2.0 0.00 0.00 0.00 87 1009.5
20260501231600 52 28 0.0 2.0 0.00 0.00 0.00 87 1009.4
20260501231500 52 28 0.0 2.0 0.00 0.00 0.00 86 1009.4
20260501231400 52 28 0.0 2.0 0.00 0.00 0.00 86 1009.4
20260501231300 52 28 0.0 2.0 0.00 0.00 0.00 86 1009.4
20260501231201 52 28 0.0 2.0 0.00 0.00 0.00 86 1009.4
20260501231100 52 28 1.0 2.0 0.00 0.00 0.00 86 1009.5
20260501231004 52 28 1.0 2.0 0.00 0.00 0.00 86 1009.5
20260501230859 52 28 0.0 2.0 0.00 0.00 0.00 86 1009.5
20260501230800 52 28 0.0 3.0 0.00 0.00 0.00 86 1009.6
20260501230659 52 28 0.0 3.0 0.00 0.00 0.00 86 1009.6
20260501230600 52 28 2.0 3.0 0.00 0.00 0.00 86 1009.6
20260501230503 52 28 0.0 5.0 0.00 0.00 0.00 86 1009.6
20260501230400 52 28 0.0 6.0 0.00 0.00 0.00 86 1009.6
20260501230159 52 28 0.0 6.0 0.00 0.00 0.00 85 1009.6
20260501230006 52 28 0.0 6.0 0.00 0.00 0.00 85 1009.6
20260501225859 52 28 3.0 6.0 0.00 0.00 0.00 84 1009.6
20260501225759 52 28 2.0 6.0 0.00 0.00 0.00 84 1009.6
20260501225659 52 28 3.0 6.0 0.00 0.00 0.00 84 1009.6